[[{"header":{"parameterUnit":"m.s-1","parameterCategory":2,"la1":30.2991,"la2":30.254,"lo1":-89.0895,"lo2":-89.0444,"dy":0.0017,"dx":0.0017,"nx":28,"ny":28,"refTime":"2024-04-15T09:00:00:Z","depth":"0","parameterNumber":2,"parameterNumberName":"U-component_of_CURRENTS"},"data":[0,0,0,0,0,0,0,0,0,0,0,0,0,0,0,0,0,0,0,0,0,0,0,0,0,0,0,0,0,0,0,0,0,0,0,0,0,0,0,0,0,0,0,0,0,0,0,0,0,0,0,0,0,0,0,0,0,0,0.26,0.2601,0,0.2635,0.2635,0.2635,0.2625,0.2624,0.2624,0.2624,0.2634,0.2635,0.2635,0,0,0,0,0,0,0,0,0,0,0,0,0,0.2529,0.253,0.26,0.2601,0.2601,0.2635,0.2635,0.2635,0.2625,0.2624,0.2624,0.2624,0.2634,0.2635,0.2636,0,0,0,0,0,0,0,0,0,0,0,0,0,0.2558,0.253,0.26,0.2603,0.2604,0.2635,0.2635,0.2635,0.2625,0.2624,0.2624,0.2623,0.2634,0.2635,0.2636,0.2653,0,0,0.2639,0.2639,0,0,0,0,0,0,0,0,0.2556,0.256,0.2602,0.2603,0.2604,0.2628,0.2614,0.2641,0.2625,0.2613,0.2624,0.2623,0.2633,0.2634,0.2637,0.2653,0.2653,0.2639,0.2639,0.264,0.264,0,0,0,0,0,0,0,0.2554,0.2558,0.261,0.2603,0.2604,0.2605,0.2608,0.2619,0.2622,0.2614,0.2614,0.2625,0.2633,0.2636,0.2637,0.2654,0.2639,0.2639,0.264,0.264,0.2748,0.275,0,0,0,0,0,0,0.2558,0.2556,0.2609,0.2611,0.2583,0.2607,0.261,0.2618,0.2623,0.2624,0.2625,0.2624,0.2634,0.2636,0.2637,0.2711,0.264,0.264,0.2641,0.2746,0.2749,0.2751,0,0,0,0,0,0,0.2556,0.2562,0.2607,0.2588,0.2594,0.2609,0.2618,0.2619,0.2627,0.2632,0.2632,0.2633,0.2634,0.2636,0.2665,0.2709,0.2641,0.2642,0.2743,0.2747,0.275,0.2825,0,0,0,0,0,0,0.2554,0.2561,0.2567,0.2588,0.2595,0.2635,0.2619,0.262,0.2636,0.2635,0.2639,0.2639,0.2634,0.2663,0.2666,0.2709,0.2642,0.274,0.2745,0.2749,0.2819,0.283,0.284,0,0,0,0,0,0.2551,0.2561,0.2567,0.2573,0.2603,0.2636,0.264,0.2646,0.2637,0.2649,0.2657,0.2639,0.2693,0.2666,0.2668,0.2713,0.2738,0.2743,0.2748,0.2815,0.2828,0.2839,0,0,0,0,0,0,0.2529,0.2563,0.2568,0.2587,0.2615,0.2636,0.2648,0.2652,0.2667,0.2665,0.2661,0.2663,0.2711,0.2701,0.2672,0.2759,0.2716,0.2722,0.2766,0.2778,0.2788,0.2788,0.2643,0,0,0,0,0,0.253,0.2547,0.2581,0.2596,0.2613,0.2632,0.2645,0.2653,0.2671,0.2676,0.268,0.2697,0.2735,0.2745,0.2767,0.2804,0.2808,0.2839,0.2849,0.2857,0.2861,0.2907,0.2922,0.2768,0.2768,0.2768,0,0,0.2523,0.2546,0.2554,0.2593,0.2613,0.2649,0.2637,0.2664,0.2699,0.2676,0.2715,0.2731,0.2754,0.2806,0.2827,0.2801,0.2907,0.2864,0.2871,0.2869,0.2914,0.2929,0.2942,0.2772,0.2771,0.277,0,0,0.2529,0.2544,0.2567,0.2596,0.2638,0.2659,0.2671,0.2701,0.2719,0.2761,0.2768,0.2807,0.2841,0.2875,0.2897,0.2975,0.2963,0.2988,0.3033,0.3079,0.3092,0.3103,0.314,0.3153,0.2988,0.2988,0.2989,0,0.252,0.2556,0.2578,0.2615,0.2645,0.2668,0.2706,0.2737,0.2771,0.2795,0.2782,0.2867,0.288,0.2965,0.2998,0.2999,0.3017,0.2983,0.3092,0.3103,0.3113,0.3147,0.3161,0.2993,0.2992,0.2992,0.2991,0,0.2551,0.2583,0.2601,0.2659,0.2694,0.2729,0.2781,0.2814,0.2836,0.2863,0.2939,0.2966,0.3011,0.3038,0.3043,0.3135,0.3123,0.3102,0.3056,0.3132,0.3164,0.3178,0.2999,0.2997,0.2996,0.2995,0,0,0.252,0.2606,0.2612,0.265,0.272,0.2753,0.2822,0.2891,0.2943,0.2976,0.3042,0.3113,0.3115,0.3142,0.3161,0.3206,0.3299,0.3187,0.3188,0.3216,0.3402,0.332,0.3326,0.3297,0.3299,0.3301,0.34,0,0.2538,0.2608,0.2652,0.2725,0.2767,0.2821,0.2889,0.2952,0.3005,0.3072,0.3116,0.3186,0.3162,0.32,0.3239,0.3292,0.3336,0.3274,0.333,0.3332,0.3243,0.3339,0.323,0.3302,0.3413,0.3415,0.3416,0,0.2552,0.2602,0.267,0.2769,0.2794,0.2846,0.2955,0.3021,0.3121,0.3162,0.3222,0.3255,0.3341,0.3304,0.3407,0.337,0.3392,0.3419,0.3422,0.3325,0.3274,0.3243,0.3322,0.327,0.3436,0.3435,0.3433,0,0.2517,0.2614,0.2668,0.27,0.2814,0.2864,0.2933,0.304,0.3096,0.3224,0.3265,0.3359,0.3403,0.3458,0.3493,0.3467,0.3595,0.3559,0.3506,0.35,0.3406,0.3387,0.3431,0.3631,0.3631,0.363,0.363,0,0.2518,0.2563,0.2658,0.269,0.2763,0.2856,0.2945,0.303,0.3141,0.3202,0.33,0.3355,0.3443,0.3509,0.3539,0.3563,0.3626,0.3536,0.3529,0.3429,0.3412,0.3358,0.3334,0.3634,0.3633,0.3633,0.3632,0,0.2473,0.2535,0.2599,0.2714,0.2747,0.2802,0.2923,0.298,0.3107,0.3191,0.3232,0.3363,0.3458,0.3533,0.3637,0.3602,0.3562,0.3643,0.3515,0.3489,0.335,0.3334,0.3218,0.3119,0.3603,0.3602,0.3601,0,0.2457,0.2483,0.2585,0.2608,0.266,0.2745,0.2791,0.2936,0.2992,0.3176,0.3199,0.3341,0.3399,0.3526,0.3545,0.3601,0.3517,0.3504,0.3422,0.3347,0.3326,0.3184,0.3099,0.3344,0.3341,0.3338,0.3336,0,0.2418,0.245,0.2498,0.2546,0.2593,0.2642,0.2728,0.2762,0.2924,0.2996,0.3104,0.3186,0.3327,0.3342,0.3422,0.3433,0.3343,0.3448,0.3419,0.3169,0.2971,0.2871,0.3275,0.3313,0.3316,0.3317,0.3319,0.3319,0.237,0.2388,0.244,0.2472,0.2508,0.253,0.2535,0.2618,0.2681,0.2768,0.2924,0.2997,0.3151,0.3245,0.324,0.3194,0.3158,0.3122,0.3127,0.3002,0.284,0.3181,0.3169,0.317,0.3172,0.3173,0.3174,0,0.2311,0.2336,0.236,0.2387,0.2367,0.243,0.2467,0.2447,0.2455,0.2587,0.2656,0.2802,0.285,0.2969,0.303,0.2933,0.2772,0.2856,0.2669,0.2615,0.2985,0.2907,0.2777,0.2777,0.2777,0.2777,0.2777,0.2778,0.2287,0.2286,0.2294,0.2235,0.2237,0.2185,0.2177,0.2163,0.2227,0.2275,0.2356,0.2477,0.2754,0.2898,0.2872,0.2787,0.2592,0.2441,0.2431,0.2758,0.2784,0.2808,0.2731,0.2566,0.2566,0.1943,0.1938,0.1935]},{"header":{"parameterUnit":"m.s-1","parameterCategory":2,"la1":30.2991,"la2":30.254,"lo1":-89.0895,"lo2":-89.0444,"dy":0.0017,"dx":0.0017,"nx":28,"ny":28,"refTime":"2024-04-15T09:00:00:Z","depth":"0","parameterNumber":3,"parameterNumberName":"V-component_of_CURRENTS"},"data":[0,0,0,0,0,0,0,0,0,0,0,0,0,0,0,0,0,0,0,0,0,0,0,0,0,0,0,0,0,0,0,0,0,0,0,0,0,0,0,0,0,0,0,0,0,0,0,0,0,0,0,0,0,0,0,0,0,0,0.0104,0.0103,0,0.0045,0.0044,0.0043,0.0004,0.0004,0.0004,0.0004,-0.0073,-0.0075,-0.0077,0,0,0,0,0,0,0,0,0,0,0,0,0,0.0141,0.014,0.0104,0.0103,0.0103,0.0045,0.0044,0.0043,0.0004,0.0004,0.0004,0.0004,-0.0072,-0.0075,-0.0077,0,0,0,0,0,0,0,0,0,0,0,0,0,0.0107,0.014,0.0104,0.0077,0.0074,0.0045,0.0044,0.0043,0.0004,0.0004,0.0004,0.0004,-0.0072,-0.0074,-0.0077,-0.0089,0,0,-0.0086,-0.0087,0,0,0,0,0,0,0,0,0.0109,0.0106,0.0081,0.0079,0.0075,0.0032,0.0029,-0.0002,0.0004,0.003,0.0004,0.0003,-0.0039,-0.0044,-0.0055,-0.0092,-0.0095,-0.0086,-0.0088,-0.0089,-0.009,0,0,0,0,0,0,0,0.0111,0.0108,0.008,0.0081,0.0077,0.0053,0.0048,0.0023,-0.0003,0.0028,0.0025,0.002,-0.0041,-0.0053,-0.0058,-0.0097,-0.0086,-0.0088,-0.009,-0.0091,-0.0159,-0.0159,0,0,0,0,0,0,0.0123,0.011,0.0082,0.0078,0.0093,0.0053,0.0047,0.0046,-0.0002,-0.001,0.002,0.0018,-0.0048,-0.0054,-0.006,-0.0075,-0.0089,-0.0091,-0.0093,-0.0159,-0.0159,-0.0159,0,0,0,0,0,0,0.0124,0.0121,0.0084,0.0093,0.0087,0.0053,0.0051,0.0045,0.0034,-0.0008,-0.0016,0.0016,-0.0048,-0.0057,-0.008,-0.0078,-0.0093,-0.0095,-0.0159,-0.0159,-0.0159,-0.0106,0,0,0,0,0,0,0.0125,0.0122,0.0124,0.0094,0.0087,0.0076,0.0051,0.0044,0.0032,0.0029,-0.0014,-0.0021,-0.0049,-0.0076,-0.0083,-0.0083,-0.0097,-0.0158,-0.0159,-0.0159,-0.0107,-0.0104,-0.0101,0,0,0,0,0,0.0127,0.0135,0.0125,0.0121,0.0092,0.0076,0.0071,0.0044,0.0032,0.0033,0.0002,-0.002,-0.0083,-0.0078,-0.0086,-0.0087,-0.0158,-0.0159,-0.0159,-0.0109,-0.0105,-0.0101,0,0,0,0,0,0,0.0154,0.0131,0.0119,0.0121,0.0103,0.007,0.0068,0.005,0.0025,0.0023,-0.0019,-0.0028,-0.005,-0.0076,-0.007,-0.0108,-0.0125,-0.0127,-0.0084,-0.0081,-0.0078,-0.0057,-0.01,0,0,0,0,0,0.0162,0.0161,0.0135,0.0137,0.0131,0.01,0.009,0.0075,0.0049,0.0038,0.0008,-0.0027,-0.0058,-0.0074,-0.0103,-0.0121,-0.0142,-0.0129,-0.0126,-0.0123,-0.0113,-0.015,-0.0149,-0.016,-0.016,-0.016,0,0,0.0172,0.016,0.0159,0.0143,0.0127,0.0127,0.0094,0.0086,0.0084,0.0033,0.0022,-0.0015,-0.0061,-0.0082,-0.0095,-0.0103,-0.0129,-0.0123,-0.012,-0.0111,-0.015,-0.0149,-0.0148,-0.016,-0.016,-0.016,0,0,0.02,0.0185,0.0196,0.0185,0.0168,0.0149,0.015,0.0122,0.0107,0.0091,0.005,0.0015,-0.0025,-0.0061,-0.0085,-0.0083,-0.0111,-0.0094,-0.0061,-0.0097,-0.0097,-0.0096,-0.0109,-0.011,-0.0092,-0.0092,-0.0092,0,0.0214,0.0225,0.0197,0.0206,0.0204,0.0164,0.0178,0.0157,0.0124,0.0117,0.0097,0.0026,-0.0016,-0.005,-0.0053,-0.0076,-0.009,-0.0069,-0.0092,-0.0092,-0.0093,-0.0106,-0.0108,-0.009,-0.009,-0.009,-0.0091,0,0.0251,0.0258,0.0265,0.0263,0.0256,0.0261,0.0232,0.0222,0.0198,0.0175,0.0142,0.0077,0.004,0.0011,-0.0021,-0.0047,-0.0053,-0.0082,-0.0096,-0.0088,-0.0103,-0.0106,-0.0086,-0.0087,-0.0088,-0.0088,0,0,0.0289,0.0291,0.0295,0.0306,0.0288,0.0289,0.0285,0.0273,0.028,0.0229,0.0232,0.015,0.0118,0.0088,0.0034,-0.0008,-0.003,-0.0039,-0.0042,-0.0042,-0.0088,-0.0079,-0.0082,-0.006,-0.0061,-0.0061,-0.0093,0,0.0329,0.0364,0.035,0.038,0.0395,0.0362,0.0366,0.0348,0.0325,0.0318,0.0241,0.0222,0.0147,0.0134,0.0077,0.0004,-0.0036,-0.0017,-0.0105,-0.0107,-0.0093,-0.0085,-0.0062,-0.0088,-0.0096,-0.0097,-0.0097,0,0.0373,0.0391,0.0433,0.0446,0.045,0.0462,0.0467,0.0465,0.0437,0.0421,0.0379,0.033,0.0266,0.0201,0.0075,0.0095,0.0013,-0.0056,-0.0059,-0.007,-0.0104,-0.0102,-0.0093,-0.0245,-0.0102,-0.0101,-0.0101,0,0.0421,0.0447,0.0487,0.0491,0.0499,0.0516,0.0519,0.0503,0.0522,0.0497,0.0516,0.0419,0.0396,0.0268,0.0134,0.0108,0.0006,-0.005,-0.0123,-0.0123,-0.013,-0.0129,-0.027,-0.014,-0.014,-0.014,-0.014,0,0.0469,0.0499,0.0518,0.054,0.0595,0.0575,0.0628,0.0616,0.0625,0.0677,0.0582,0.0606,0.0412,0.0334,0.0183,0.0042,0.0044,-0.0107,-0.0132,-0.011,-0.0107,-0.0261,-0.0351,-0.0141,-0.0141,-0.0141,-0.0141,0,0.0517,0.0527,0.0577,0.0605,0.0624,0.0663,0.0714,0.0752,0.0749,0.0818,0.0824,0.0756,0.0658,0.0468,0.0278,0.0129,-0.0106,-0.0078,-0.0024,-0.0042,-0.0267,-0.0353,-0.051,-0.0577,-0.0171,-0.0171,-0.0171,0,0.0543,0.0577,0.0637,0.0679,0.0701,0.0758,0.0808,0.0819,0.0876,0.0926,0.0977,0.0908,0.0888,0.0615,0.0334,0.0083,-0.0085,-0.0067,-0.0133,-0.0266,-0.0382,-0.045,-0.0501,-0.012,-0.0119,-0.0119,-0.0119,0,0.0598,0.0623,0.0668,0.076,0.0826,0.09,0.0977,0.1044,0.1085,0.1157,0.124,0.1232,0.0979,0.0732,0.0379,0.0195,-0.0168,-0.0068,-0.0233,-0.037,-0.0428,-0.0506,-0.0099,-0.0115,-0.0116,-0.0116,-0.0116,-0.0116,0.0646,0.0694,0.0763,0.0848,0.0928,0.1041,0.1121,0.1222,0.1346,0.1462,0.1437,0.146,0.1091,0.061,0.0337,-0.0136,-0.0164,-0.0293,-0.0389,-0.0446,-0.0512,-0.0081,-0.0112,-0.0113,-0.0113,-0.0113,-0.0113,0,0.0711,0.0766,0.0845,0.0954,0.1049,0.1081,0.1234,0.1332,0.1506,0.161,0.1676,0.1523,0.1066,0.06,-0.0045,-0.0394,-0.0533,-0.0583,-0.0693,-0.0733,-0.0369,-0.0369,-0.0425,-0.0424,-0.0424,-0.0424,-0.0424,-0.0424,0.0752,0.0841,0.0879,0.1041,0.1118,0.1263,0.1358,0.1518,0.1635,0.1789,0.1816,0.1789,0.146,0.0269,-0.0536,-0.0725,-0.0965,-0.1014,-0.1148,-0.0922,-0.0903,-0.0885,-0.0907,-0.1075,-0.1076,-0.146,-0.1464,-0.1467]}],[{"header":{"parameterUnit":"m.s-1","parameterCategory":2,"la1":30.2991,"la2":30.254,"lo1":-89.0895,"lo2":-89.0444,"dy":0.0017,"dx":0.0017,"nx":28,"ny":28,"refTime":"2024-04-15T09:00:00:Z","depth":"2","parameterNumber":2,"parameterNumberName":"U-component_of_CURRENTS"},"data":[0,0,0,0,0,0,0,0,0,0,0,0,0,0,0,0,0,0,0,0,0,0,0,0,0,0,0,0,0,0,0,0,0,0,0,0,0,0,0,0,0,0,0,0,0,0,0,0,0,0,0,0,0,0,0,0,0,0,0.2331,0.2332,0,0.2378,0.2378,0.2378,0.2389,0.239,0.239,0.239,0.2405,0.2405,0.2405,0,0,0,0,0,0,0,0,0,0,0,0,0,0.2261,0.2262,0.2331,0.2333,0.2334,0.2378,0.2378,0.2378,0.2389,0.239,0.239,0.239,0.2405,0.2405,0.2405,0,0,0,0,0,0,0,0,0,0,0,0,0,0.2292,0.2262,0.2331,0.235,0.2352,0.2378,0.2378,0.2378,0.2389,0.239,0.239,0.2391,0.2405,0.2405,0.2405,0.2397,0,0,0.2405,0.2405,0,0,0,0,0,0,0,0,0.229,0.2293,0.2346,0.2348,0.2351,0.2384,0.2359,0.2385,0.2389,0.2368,0.239,0.2391,0.2399,0.24,0.2398,0.2398,0.2398,0.2405,0.2405,0.2406,0.2406,0,0,0,0,0,0,0,0.2288,0.2292,0.2343,0.2347,0.2351,0.2359,0.2363,0.2364,0.2375,0.237,0.2373,0.2388,0.2399,0.2398,0.2399,0.2398,0.2405,0.2406,0.2406,0.2406,0.2499,0.2502,0,0,0,0,0,0,0.2294,0.2289,0.2342,0.2345,0.2329,0.2361,0.2365,0.2368,0.2375,0.2379,0.2388,0.2389,0.2398,0.2399,0.2399,0.2484,0.2406,0.2406,0.2406,0.2497,0.25,0.2503,0,0,0,0,0,0,0.2292,0.2298,0.234,0.2324,0.2331,0.2362,0.2365,0.2369,0.2378,0.2391,0.2392,0.2396,0.2398,0.2399,0.2416,0.2481,0.2406,0.2406,0.2494,0.2498,0.2501,0.2592,0,0,0,0,0,0,0.229,0.2297,0.2303,0.2325,0.2333,0.2362,0.2365,0.237,0.239,0.2391,0.2398,0.2399,0.2398,0.2416,0.2416,0.2479,0.2406,0.2491,0.2496,0.25,0.2586,0.2598,0.2609,0,0,0,0,0,0.2287,0.2298,0.2303,0.231,0.234,0.2363,0.2367,0.2386,0.239,0.2395,0.2406,0.2399,0.2446,0.2416,0.2417,0.2482,0.2489,0.2495,0.25,0.2581,0.2596,0.2609,0,0,0,0,0,0,0.2267,0.2301,0.2307,0.2326,0.2347,0.2368,0.2385,0.239,0.2401,0.2412,0.2408,0.241,0.2449,0.2449,0.2417,0.2525,0.2476,0.2481,0.2538,0.2551,0.2563,0.2601,0.2406,0,0,0,0,0,0.2267,0.2286,0.2313,0.2328,0.2343,0.2362,0.2376,0.2391,0.2407,0.2412,0.2421,0.2444,0.247,0.2495,0.2501,0.2552,0.2549,0.2602,0.2613,0.2623,0.2656,0.2681,0.2698,0.252,0.252,0.252,0,0,0.2265,0.2288,0.2298,0.2327,0.2346,0.2379,0.237,0.2402,0.2438,0.2412,0.2458,0.2464,0.2484,0.2542,0.2565,0.2556,0.2673,0.263,0.2638,0.2667,0.2689,0.2706,0.2721,0.2524,0.2523,0.2523,0,0,0.2276,0.229,0.2313,0.2338,0.238,0.2397,0.2408,0.2439,0.2461,0.2503,0.2504,0.2557,0.2581,0.2631,0.2655,0.2736,0.2713,0.2738,0.2851,0.2874,0.2889,0.2902,0.292,0.2934,0.2768,0.2768,0.2768,0,0.2277,0.2305,0.2322,0.2357,0.2388,0.2408,0.2444,0.2474,0.2508,0.254,0.2534,0.2626,0.264,0.2741,0.2787,0.2767,0.2762,0.2793,0.2889,0.2902,0.2913,0.2928,0.2942,0.2773,0.2772,0.2772,0.2771,0,0.2307,0.2337,0.2356,0.2409,0.2439,0.2475,0.2523,0.2565,0.2599,0.2631,0.272,0.2756,0.2815,0.2848,0.2852,0.2962,0.2923,0.2877,0.2851,0.2937,0.2947,0.296,0.278,0.2778,0.2777,0.2776,0,0,0.2287,0.2363,0.2369,0.2409,0.2472,0.2503,0.258,0.265,0.2711,0.2774,0.2853,0.2955,0.2969,0.3001,0.3019,0.3089,0.3175,0.304,0.3039,0.3055,0.3221,0.3113,0.3116,0.313,0.3133,0.3135,0.3193,0,0.2306,0.2374,0.2408,0.2483,0.2526,0.2584,0.2657,0.2731,0.2783,0.2861,0.2948,0.3017,0.3025,0.3071,0.3137,0.3154,0.3214,0.3164,0.3141,0.3141,0.3031,0.313,0.291,0.2936,0.3206,0.3208,0.3209,0,0.2318,0.237,0.2434,0.2542,0.2568,0.2624,0.2743,0.2805,0.2918,0.2977,0.3067,0.3086,0.3219,0.3191,0.3302,0.3259,0.326,0.3282,0.3281,0.3165,0.3058,0.2895,0.2948,0.323,0.3229,0.3227,0.3226,0,0.2287,0.2387,0.2439,0.2473,0.2594,0.2658,0.2731,0.2843,0.2904,0.3038,0.3088,0.3206,0.3267,0.3313,0.3345,0.3321,0.3437,0.3383,0.3295,0.3286,0.3091,0.3059,0.3456,0.3456,0.3456,0.3455,0.3455,0,0.2284,0.2339,0.244,0.2471,0.2565,0.2659,0.2756,0.2856,0.298,0.3036,0.313,0.3191,0.3298,0.3345,0.3371,0.3377,0.3441,0.3349,0.3308,0.3115,0.3086,0.3329,0.3314,0.3457,0.3457,0.3457,0.3456,0,0.2241,0.2304,0.2373,0.25,0.2543,0.261,0.2755,0.2823,0.2958,0.3029,0.3073,0.3202,0.3267,0.3337,0.3421,0.3391,0.3422,0.3397,0.3168,0.3099,0.3252,0.3241,0.332,0.3317,0.3314,0.3312,0.331,0,0.2225,0.2253,0.2352,0.2389,0.2449,0.2559,0.2627,0.2796,0.2851,0.3008,0.3027,0.3134,0.3159,0.3259,0.3271,0.3299,0.3358,0.308,0.3005,0.3293,0.3245,0.3238,0.323,0.2785,0.2779,0.2774,0.2771,0,0.22,0.2225,0.2273,0.2325,0.2396,0.2456,0.2564,0.2611,0.2772,0.2828,0.2894,0.2935,0.3037,0.2976,0.3026,0.3006,0.3064,0.2979,0.335,0.2844,0.279,0.2743,0.2753,0.2727,0.2732,0.2735,0.2737,0.2739,0.2164,0.2182,0.2221,0.2265,0.2324,0.2341,0.2356,0.2439,0.2489,0.2544,0.2673,0.2672,0.2748,0.2711,0.2648,0.2622,0.2823,0.2708,0.2723,0.2743,0.2661,0.2605,0.2492,0.2495,0.2498,0.25,0.2502,0,0.2109,0.2136,0.2166,0.2195,0.2186,0.2252,0.2294,0.2266,0.2246,0.2338,0.2368,0.2215,0.2201,0.2279,0.2191,0.2201,0.2179,0.2097,0.206,0.2106,0.2147,0.2033,0.1698,0.1695,0.1692,0.169,0,0,0.2091,0.2087,0.2093,0.2047,0.2058,0.2016,0.2006,0.196,0.1995,0.1933,0.1936,0.2116,0.2235,0.1937,0.1913,0.1794,0.1928,0.1722,0.2378,0.2384,0.242,0.2523,0.2404,0,0,0,0,0]},{"header":{"parameterUnit":"m.s-1","parameterCategory":2,"la1":30.2991,"la2":30.254,"lo1":-89.0895,"lo2":-89.0444,"dy":0.0017,"dx":0.0017,"nx":28,"ny":28,"refTime":"2024-04-15T09:00:00:Z","depth":"2","parameterNumber":3,"parameterNumberName":"V-component_of_CURRENTS"},"data":[0,0,0,0,0,0,0,0,0,0,0,0,0,0,0,0,0,0,0,0,0,0,0,0,0,0,0,0,0,0,0,0,0,0,0,0,0,0,0,0,0,0,0,0,0,0,0,0,0,0,0,0,0,0,0,0,0,0,-0.0057,-0.0057,0,-0.0106,-0.0107,-0.0107,-0.0141,-0.0141,-0.0141,-0.0142,-0.0221,-0.0223,-0.0225,0,0,0,0,0,0,0,0,0,0,0,0,0,-0.0018,-0.0018,-0.0057,-0.0057,-0.0058,-0.0106,-0.0107,-0.0107,-0.0141,-0.0141,-0.0141,-0.0142,-0.022,-0.0223,-0.0225,0,0,0,0,0,0,0,0,0,0,0,0,0,-0.0048,-0.0018,-0.0057,-0.008,-0.0082,-0.0106,-0.0107,-0.0108,-0.0141,-0.0141,-0.0141,-0.0142,-0.022,-0.0222,-0.0225,-0.0238,0,0,-0.0234,-0.0236,0,0,0,0,0,0,0,0,-0.0046,-0.005,-0.0076,-0.0078,-0.0081,-0.0117,-0.0122,-0.0153,-0.0141,-0.0119,-0.0142,-0.0142,-0.0188,-0.0194,-0.0203,-0.0242,-0.0245,-0.0235,-0.0236,-0.0238,-0.0238,0,0,0,0,0,0,0,-0.0044,-0.0048,-0.0077,-0.0076,-0.008,-0.0097,-0.0101,-0.0128,-0.0153,-0.0121,-0.0124,-0.0128,-0.019,-0.02,-0.0205,-0.0246,-0.0234,-0.0237,-0.0239,-0.024,-0.0309,-0.0309,0,0,0,0,0,0,-0.0035,-0.0046,-0.0075,-0.0078,-0.0063,-0.0097,-0.0102,-0.0106,-0.0152,-0.0159,-0.0128,-0.0129,-0.0195,-0.0202,-0.0208,-0.0225,-0.0238,-0.024,-0.0242,-0.0309,-0.0309,-0.0309,0,0,0,0,0,0,-0.0034,-0.0037,-0.0073,-0.0063,-0.0068,-0.0097,-0.0101,-0.0107,-0.0116,-0.0156,-0.0164,-0.0131,-0.0196,-0.0204,-0.023,-0.0228,-0.0242,-0.0244,-0.0309,-0.0309,-0.0309,-0.0259,0,0,0,0,0,0,-0.0033,-0.0036,-0.0034,-0.0062,-0.0069,-0.0081,-0.0101,-0.0107,-0.0118,-0.012,-0.0162,-0.0169,-0.0196,-0.0225,-0.0233,-0.0233,-0.0247,-0.0309,-0.0309,-0.0309,-0.0261,-0.0258,-0.0255,0,0,0,0,0,-0.0031,-0.0024,-0.0034,-0.0037,-0.0065,-0.0081,-0.0086,-0.0108,-0.0117,-0.0118,-0.0147,-0.0168,-0.0232,-0.0228,-0.0236,-0.0237,-0.0309,-0.0309,-0.0309,-0.0262,-0.0258,-0.0255,0,0,0,0,0,0,-0.0004,-0.0027,-0.0039,-0.0039,-0.0057,-0.0086,-0.0086,-0.0103,-0.0127,-0.0127,-0.0168,-0.0178,-0.0201,-0.0226,-0.022,-0.0258,-0.0274,-0.0276,-0.0236,-0.0232,-0.0229,-0.0199,-0.0249,0,0,0,0,0,0.0003,0.0002,-0.0025,-0.0024,-0.003,-0.0058,-0.0066,-0.008,-0.0105,-0.0115,-0.0144,-0.0177,-0.0209,-0.0225,-0.0254,-0.0273,-0.0289,-0.028,-0.0277,-0.0275,-0.0256,-0.0284,-0.0281,-0.031,-0.031,-0.031,0,0,0.0014,0.0002,0.0,-0.0018,-0.0032,-0.0033,-0.0063,-0.0069,-0.007,-0.012,-0.0129,-0.0167,-0.0212,-0.0233,-0.0246,-0.0254,-0.0277,-0.0275,-0.0272,-0.0255,-0.0284,-0.0281,-0.0278,-0.031,-0.031,-0.031,0,0,0.0041,0.0025,0.0035,0.0024,0.0008,-0.001,-0.0009,-0.0035,-0.0047,-0.0063,-0.0102,-0.0136,-0.0178,-0.0211,-0.0234,-0.0233,-0.026,-0.0246,-0.0206,-0.0234,-0.0231,-0.0229,-0.0249,-0.0249,-0.0245,-0.0245,-0.0245,0,0.0057,0.0064,0.0036,0.0045,0.0044,0.0005,0.002,-0.0001,-0.0032,-0.0033,-0.0056,-0.012,-0.0165,-0.0194,-0.0198,-0.0225,-0.0239,-0.0215,-0.0228,-0.0227,-0.0225,-0.0246,-0.0247,-0.0242,-0.0243,-0.0243,-0.0243,0,0.009,0.0097,0.0104,0.0101,0.0096,0.0101,0.0074,0.0066,0.0045,0.0027,-0.0,-0.0066,-0.0098,-0.013,-0.0165,-0.0181,-0.0194,-0.022,-0.0232,-0.0219,-0.0242,-0.0244,-0.0239,-0.024,-0.0241,-0.0241,0,0,0.0126,0.0128,0.0131,0.0146,0.0128,0.0132,0.0131,0.0124,0.0139,0.0089,0.0101,0.002,-0.0009,-0.0037,-0.0095,-0.013,-0.0149,-0.0164,-0.0167,-0.0173,-0.0198,-0.0204,-0.0206,-0.0175,-0.0175,-0.0175,-0.0218,0,0.0163,0.0198,0.0185,0.0219,0.0236,0.0207,0.0216,0.0205,0.0188,0.0189,0.0116,0.0102,0.0024,0.0011,-0.0038,-0.0115,-0.0149,-0.0133,-0.0218,-0.022,-0.0218,-0.0207,-0.018,-0.0215,-0.022,-0.022,-0.022,0,0.0203,0.0222,0.0267,0.029,0.0296,0.0312,0.033,0.0332,0.0316,0.0305,0.0272,0.0224,0.0162,0.0097,-0.0023,-0.0007,-0.0089,-0.0159,-0.0162,-0.018,-0.0227,-0.023,-0.0218,-0.0223,-0.0223,-0.0223,-0.0223,0,0.025,0.028,0.0323,0.0329,0.0346,0.0369,0.0378,0.0377,0.0401,0.0388,0.0409,0.0323,0.0295,0.0177,0.0031,0.001,-0.0093,-0.0144,-0.0228,-0.023,-0.0228,-0.0229,-0.0218,-0.0218,-0.0218,-0.0218,-0.0218,0,0.0295,0.033,0.0354,0.0378,0.0441,0.0431,0.0496,0.0492,0.0512,0.0562,0.048,0.0494,0.0316,0.0232,0.0083,-0.0065,-0.0054,-0.0207,-0.0237,-0.0211,-0.021,-0.0235,-0.0236,-0.022,-0.0219,-0.0219,-0.0219,0,0.0341,0.0354,0.0408,0.0445,0.0468,0.0515,0.058,0.0627,0.0632,0.0696,0.07,0.0632,0.0521,0.0341,0.0156,0.0016,-0.0136,-0.0194,-0.0145,-0.0169,-0.027,-0.0268,-0.0291,-0.0291,-0.0292,-0.0292,-0.0292,0,0.0367,0.0402,0.0465,0.0512,0.0538,0.0607,0.0663,0.0688,0.0747,0.0783,0.0825,0.0745,0.0699,0.0429,0.0175,-0.0067,-0.0117,-0.0202,-0.0249,-0.0248,-0.0275,-0.0273,-0.0271,-0.0233,-0.0232,-0.0232,-0.0232,0,0.0421,0.0445,0.0492,0.0585,0.0658,0.0736,0.0819,0.0886,0.0928,0.0974,0.1017,0.0983,0.0744,0.0501,0.0177,0.0011,-0.0164,-0.0206,-0.021,-0.0215,-0.0196,-0.0222,-0.0221,-0.023,-0.023,-0.0231,-0.0231,-0.0231,0.0465,0.0511,0.0574,0.0663,0.0753,0.0856,0.0931,0.1016,0.1111,0.1183,0.1154,0.1112,0.0843,0.0431,0.0143,-0.015,-0.0146,-0.0261,-0.026,-0.026,-0.0243,-0.0225,-0.0261,-0.0261,-0.0261,-0.0262,-0.0262,0,0.0511,0.0564,0.0648,0.0754,0.0848,0.0888,0.1029,0.1094,0.1207,0.1276,0.1297,0.1048,0.0785,0.048,0.0047,-0.0219,-0.0244,-0.0301,-0.0281,-0.028,-0.0279,-0.0263,-0.0287,-0.0288,-0.0289,-0.0289,0,0,0.0542,0.0619,0.0657,0.081,0.0893,0.1021,0.1104,0.12,0.1278,0.1321,0.1312,0.1265,0.09,0.0577,0.0214,-0.0036,-0.0094,-0.0081,-0.0029,0.004,0.0043,-0.0222,-0.0191,0,0,0,0,0]}],[{"header":{"parameterUnit":"m.s-1","parameterCategory":2,"la1":30.2991,"la2":30.254,"lo1":-89.0895,"lo2":-89.0444,"dy":0.0017,"dx":0.0017,"nx":28,"ny":28,"refTime":"2024-04-15T09:00:00:Z","depth":"4","parameterNumber":2,"parameterNumberName":"U-component_of_CURRENTS"},"data":[0,0,0,0,0,0,0,0,0,0,0,0,0,0,0,0,0,0,0,0,0,0,0,0,0,0,0,0,0,0,0,0,0,0,0,0,0,0,0,0,0,0,0,0,0,0,0,0,0,0,0,0,0,0,0,0,0,0,0.1354,0.1354,0,0.1394,0.1395,0.1396,0.1452,0.1452,0.1453,0.1454,0.1498,0.1498,0.1499,0,0,0,0,0,0,0,0,0,0,0,0,0,0.1308,0.1309,0.1354,0.1354,0.1354,0.1394,0.1395,0.1396,0.1452,0.1453,0.1453,0.1454,0.1497,0.1498,0.1499,0,0,0,0,0,0,0,0,0,0,0,0,0,0.1338,0.1309,0.1354,0.1386,0.1389,0.1394,0.1395,0.1396,0.1451,0.1453,0.1454,0.1455,0.1497,0.1498,0.1499,0.148,0,0,0.1501,0.1501,0,0,0,0,0,0,0,0,0.1336,0.134,0.1381,0.1383,0.1387,0.1417,0.1395,0.1423,0.1451,0.143,0.1454,0.1455,0.1469,0.1472,0.148,0.1482,0.1484,0.1501,0.1501,0.1501,0.1502,0,0,0,0,0,0,0,0.1334,0.1338,0.1372,0.1381,0.1385,0.1392,0.1398,0.14,0.1444,0.1432,0.1435,0.1436,0.1471,0.1479,0.1481,0.1484,0.1501,0.1501,0.1502,0.1502,0.1552,0.1553,0,0,0,0,0,0,0.1325,0.1336,0.137,0.1373,0.1362,0.1392,0.1398,0.1408,0.1444,0.145,0.1435,0.1439,0.1477,0.148,0.1483,0.1543,0.1501,0.1502,0.1502,0.1551,0.1552,0.1553,0,0,0,0,0,0,0.1324,0.1328,0.1369,0.1353,0.1359,0.1391,0.1402,0.1408,0.1441,0.1446,0.1453,0.1463,0.1478,0.1482,0.1512,0.1542,0.1502,0.1503,0.155,0.1552,0.1553,0.1611,0,0,0,0,0,0,0.1322,0.1327,0.1347,0.1353,0.1359,0.1387,0.14,0.1408,0.1437,0.1443,0.1472,0.1476,0.148,0.1512,0.1513,0.1542,0.1503,0.1549,0.1551,0.1553,0.1608,0.1614,0.1619,0,0,0,0,0,0.1321,0.1333,0.1347,0.1352,0.138,0.1388,0.1393,0.142,0.1437,0.1453,0.1479,0.1476,0.1524,0.1513,0.1514,0.1544,0.1548,0.155,0.1552,0.1605,0.1613,0.1619,0,0,0,0,0,0,0.1325,0.134,0.1356,0.1375,0.1389,0.1397,0.1418,0.143,0.1462,0.1481,0.1486,0.1492,0.1528,0.1524,0.1512,0.1563,0.1536,0.1538,0.1575,0.1582,0.1588,0.1586,0.1504,0,0,0,0,0,0.1332,0.1349,0.1361,0.1379,0.139,0.1409,0.1421,0.1439,0.1459,0.1476,0.1499,0.152,0.1532,0.155,0.1559,0.1586,0.1597,0.1606,0.1612,0.1617,0.1616,0.1697,0.1711,0.156,0.156,0.156,0,0,0.1339,0.135,0.1361,0.1382,0.14,0.141,0.1421,0.1448,0.1465,0.1473,0.1522,0.154,0.1541,0.1577,0.1593,0.1584,0.1658,0.1619,0.1624,0.162,0.1701,0.1716,0.173,0.1562,0.1562,0.1561,0,0,0.1344,0.1373,0.1386,0.14,0.1427,0.1432,0.1443,0.1472,0.1502,0.153,0.1549,0.1585,0.1603,0.1623,0.1627,0.1666,0.1682,0.1678,0.1715,0.1795,0.1808,0.1821,0.1824,0.1836,0.1688,0.1688,0.1688,0,0.1355,0.1369,0.1391,0.1404,0.1417,0.1441,0.1454,0.1477,0.1517,0.1551,0.1552,0.1613,0.1618,0.1661,0.1682,0.1679,0.1714,0.169,0.1805,0.1818,0.1829,0.183,0.1843,0.1691,0.1691,0.169,0.169,0,0.136,0.1381,0.1391,0.1414,0.1431,0.1448,0.1474,0.1517,0.1548,0.1574,0.1639,0.1657,0.1706,0.1707,0.1704,0.1792,0.1783,0.1801,0.1791,0.1848,0.1844,0.1856,0.1695,0.1694,0.1693,0.1693,0,0,0.1347,0.1387,0.1391,0.1407,0.1441,0.145,0.1495,0.1537,0.1585,0.1629,0.17,0.1717,0.1767,0.1775,0.1797,0.185,0.1945,0.1873,0.1876,0.1881,0.2094,0.1976,0.1977,0.2016,0.2019,0.2021,0.2047,0,0.1344,0.1362,0.1387,0.1409,0.1418,0.1467,0.1502,0.1554,0.1608,0.169,0.1733,0.1804,0.1783,0.1839,0.1892,0.1935,0.1987,0.1933,0.2032,0.2033,0.1929,0.1991,0.2032,0.2056,0.2059,0.2061,0.2062,0,0.1332,0.1343,0.1367,0.141,0.1424,0.145,0.153,0.1569,0.1682,0.1742,0.1832,0.189,0.1971,0.1965,0.2055,0.2039,0.2079,0.2093,0.2096,0.1975,0.194,0.1994,0.2084,0.2083,0.2081,0.2079,0.2078,0,0.1287,0.1327,0.1345,0.136,0.1414,0.1458,0.1499,0.1595,0.1658,0.181,0.1884,0.1983,0.2056,0.2125,0.2157,0.2146,0.2248,0.2236,0.215,0.2139,0.2211,0.2198,0.2329,0.2329,0.2329,0.2329,0.2329,0,0.1253,0.1267,0.1336,0.134,0.1378,0.1442,0.1514,0.1583,0.1721,0.1797,0.1928,0.2,0.2118,0.2188,0.2206,0.2198,0.2297,0.2157,0.2157,0.2226,0.2216,0.2217,0.2204,0.233,0.2329,0.2329,0.2329,0,0.1194,0.1236,0.1259,0.133,0.1355,0.139,0.1509,0.1567,0.1708,0.1824,0.1892,0.2052,0.2138,0.2208,0.2306,0.224,0.2257,0.2243,0.2276,0.2277,0.2071,0.206,0.2128,0.2124,0.2121,0.2119,0.2117,0,0.1158,0.1168,0.1239,0.126,0.1298,0.1365,0.1409,0.1546,0.1609,0.1818,0.1858,0.2029,0.2113,0.2121,0.2213,0.2239,0.2231,0.2197,0.2154,0.2066,0.206,0.2054,0.2047,0.2112,0.2111,0.211,0.2109,0,0.1087,0.1135,0.1157,0.1202,0.1248,0.1293,0.1368,0.1407,0.1566,0.1708,0.1803,0.1889,0.1984,0.2047,0.2101,0.2113,0.2188,0.2166,0.2171,0.213,0.2048,0.2043,0.204,0.2099,0.2101,0.2102,0.2102,0,0.1045,0.1048,0.1098,0.1132,0.1186,0.1211,0.1255,0.1325,0.1407,0.1623,0.1642,0.1818,0.1954,0.1984,0.2022,0.204,0.201,0.1924,0.1942,0.1954,0.1892,0.1762,0.1733,0,0,0,0,0,0.0999,0.0996,0.1022,0.1048,0.1109,0.1144,0.1225,0.128,0.1413,0.1438,0.1546,0.1635,0.1738,0.1821,0.181,0.1953,0.2015,0.1929,0.1923,0.2042,0.2054,0.2,0,0,0,0,0,0,0.0961,0.0982,0.099,0.0986,0.1,0.1049,0.1099,0.1187,0.1199,0.1349,0.141,0.1533,0.1653,0.1742,0.1783,0.1808,0.1768,0.2034,0.203,0.2035,0.2046,0.2055,0.2005,0,0,0,0,0]},{"header":{"parameterUnit":"m.s-1","parameterCategory":2,"la1":30.2991,"la2":30.254,"lo1":-89.0895,"lo2":-89.0444,"dy":0.0017,"dx":0.0017,"nx":28,"ny":28,"refTime":"2024-04-15T09:00:00:Z","depth":"4","parameterNumber":3,"parameterNumberName":"V-component_of_CURRENTS"},"data":[0,0,0,0,0,0,0,0,0,0,0,0,0,0,0,0,0,0,0,0,0,0,0,0,0,0,0,0,0,0,0,0,0,0,0,0,0,0,0,0,0,0,0,0,0,0,0,0,0,0,0,0,0,0,0,0,0,0,-0.0043,-0.0044,0,-0.0078,-0.0078,-0.0078,-0.0109,-0.0109,-0.0109,-0.011,-0.0161,-0.0162,-0.0163,0,0,0,0,0,0,0,0,0,0,0,0,0,-0.0018,-0.0018,-0.0043,-0.0044,-0.0044,-0.0078,-0.0078,-0.0079,-0.0108,-0.0109,-0.0109,-0.011,-0.0161,-0.0162,-0.0163,0,0,0,0,0,0,0,0,0,0,0,0,0,-0.0038,-0.0018,-0.0043,-0.0063,-0.0065,-0.0078,-0.0078,-0.0079,-0.0108,-0.0109,-0.0109,-0.011,-0.016,-0.0162,-0.0163,-0.0162,0,0,-0.0168,-0.0169,0,0,0,0,0,0,0,0,-0.0037,-0.0039,-0.006,-0.0062,-0.0064,-0.009,-0.0088,-0.0107,-0.0108,-0.0092,-0.011,-0.011,-0.0138,-0.0142,-0.0147,-0.0165,-0.0167,-0.0168,-0.0169,-0.017,-0.017,0,0,0,0,0,0,0,-0.0035,-0.0038,-0.0057,-0.006,-0.0063,-0.0076,-0.0079,-0.0092,-0.0112,-0.0093,-0.0096,-0.01,-0.014,-0.0145,-0.0148,-0.0168,-0.0168,-0.017,-0.0171,-0.0171,-0.0183,-0.0183,0,0,0,0,0,0,-0.003,-0.0036,-0.0056,-0.0058,-0.0052,-0.0075,-0.0079,-0.0081,-0.0111,-0.0117,-0.0099,-0.0101,-0.0142,-0.0146,-0.015,-0.0136,-0.017,-0.0171,-0.0172,-0.0184,-0.0183,-0.0182,0,0,0,0,0,0,-0.0029,-0.0031,-0.0054,-0.0048,-0.0052,-0.0075,-0.0077,-0.0081,-0.0088,-0.0116,-0.0121,-0.0102,-0.0143,-0.0148,-0.016,-0.0139,-0.0172,-0.0173,-0.0184,-0.0184,-0.0183,-0.0117,0,0,0,0,0,0,-0.0028,-0.0031,-0.003,-0.0048,-0.0052,-0.0056,-0.0076,-0.0081,-0.009,-0.0092,-0.012,-0.0125,-0.0144,-0.0157,-0.0161,-0.0142,-0.0175,-0.0185,-0.0184,-0.0183,-0.012,-0.0114,-0.0109,0,0,0,0,0,-0.0027,-0.0021,-0.0029,-0.0032,-0.005,-0.0055,-0.0058,-0.0077,-0.0089,-0.0086,-0.0107,-0.0124,-0.0153,-0.0158,-0.0163,-0.0143,-0.0186,-0.0184,-0.0183,-0.0123,-0.0115,-0.0109,0,0,0,0,0,0,-0.0009,-0.0025,-0.0034,-0.0033,-0.0041,-0.006,-0.0061,-0.0073,-0.0087,-0.0092,-0.012,-0.0126,-0.0129,-0.0146,-0.0152,-0.0144,-0.0171,-0.017,-0.0123,-0.0117,-0.0111,-0.0093,-0.0176,0,0,0,0,0,-0.0004,-0.0004,-0.002,-0.0018,-0.0022,-0.0041,-0.0046,-0.0057,-0.0072,-0.0079,-0.0099,-0.0117,-0.0126,-0.013,-0.0146,-0.0141,-0.0171,-0.0131,-0.0126,-0.0121,-0.011,-0.0144,-0.0141,-0.0178,-0.0178,-0.0178,0,0,0.0002,-0.0005,-0.0006,-0.0014,-0.0024,-0.0016,-0.0045,-0.0048,-0.0037,-0.0082,-0.0078,-0.0103,-0.0123,-0.0118,-0.012,-0.0129,-0.0127,-0.0119,-0.0114,-0.0106,-0.0143,-0.0139,-0.0136,-0.0177,-0.0177,-0.0177,0,0,0.0023,0.0011,0.002,0.0017,0.0007,0.0,0.0001,-0.0016,-0.0019,-0.0021,-0.0046,-0.0056,-0.0077,-0.0079,-0.0084,-0.0057,-0.0101,-0.0065,-0.0016,-0.0049,-0.0046,-0.0044,-0.008,-0.0081,-0.0056,-0.0056,-0.0056,0,0.0032,0.0043,0.0023,0.0033,0.004,0.0012,0.0032,0.0027,0.0009,0.0014,-0.0012,-0.0033,-0.0052,-0.0035,-0.0024,-0.0042,-0.0076,-0.0038,-0.0042,-0.004,-0.0039,-0.0076,-0.0079,-0.0053,-0.0053,-0.0053,-0.0054,0,0.0059,0.0071,0.0077,0.0085,0.009,0.01,0.0094,0.0095,0.0082,0.0076,0.0077,0.0044,0.0034,0.0029,0.0012,0.002,-0.0012,-0.0036,-0.0057,-0.0031,-0.0072,-0.0076,-0.0048,-0.0049,-0.005,-0.0051,0,0,0.0077,0.0094,0.0098,0.0118,0.012,0.0131,0.0151,0.0167,0.0185,0.0158,0.0177,0.016,0.0132,0.0125,0.0098,0.0076,0.0054,0.0029,0.0026,-0.0002,-0.0029,-0.0038,-0.0044,0.0021,0.0021,0.002,-0.0061,0,0.0108,0.0147,0.0148,0.0194,0.0216,0.0207,0.0235,0.0244,0.0238,0.0245,0.0215,0.0215,0.0173,0.0166,0.0139,0.0074,0.0047,0.0078,-0.0052,-0.0055,-0.0064,-0.0047,0.002,-0.0064,-0.0065,-0.0066,-0.0066,0,0.0138,0.0164,0.0214,0.0261,0.0271,0.0295,0.0333,0.0354,0.0357,0.035,0.0334,0.0297,0.0275,0.0225,0.013,0.0146,0.0069,0.0012,0.0007,-0.0024,-0.0071,-0.0096,-0.0074,-0.0073,-0.0073,-0.0072,-0.0072,0,0.0168,0.0214,0.0261,0.0273,0.0315,0.0343,0.0369,0.0387,0.0418,0.0413,0.0416,0.0371,0.0343,0.0249,0.0128,0.0124,0.0007,-0.0017,-0.0098,-0.01,-0.0098,-0.0099,-0.0088,-0.0088,-0.0087,-0.0087,-0.0087,0,0.0202,0.024,0.028,0.0304,0.0371,0.0387,0.0451,0.0464,0.0491,0.0522,0.0471,0.0465,0.0343,0.0258,0.0146,0.0013,0.0014,-0.0083,-0.0117,-0.0069,-0.0066,-0.0101,-0.0102,-0.009,-0.009,-0.0089,-0.0089,0,0.0225,0.0248,0.0305,0.0361,0.0386,0.0433,0.0508,0.0549,0.0562,0.0595,0.0594,0.0533,0.0421,0.029,0.0132,0.0039,-0.0087,-0.0139,-0.0075,-0.0106,-0.0176,-0.0172,-0.0225,-0.0226,-0.0227,-0.0228,-0.0228,0,0.024,0.0271,0.0344,0.0381,0.0408,0.048,0.0533,0.0582,0.0619,0.0628,0.0639,0.0554,0.0488,0.027,0.0124,-0.0081,-0.0116,-0.0185,-0.0175,-0.016,-0.0188,-0.0183,-0.0179,-0.0229,-0.0229,-0.023,-0.023,0,0.0266,0.0288,0.0332,0.0408,0.0469,0.0546,0.0615,0.0651,0.0693,0.0707,0.0675,0.0568,0.0442,0.0273,0.0112,-0.0038,-0.0137,-0.0194,-0.0193,-0.0184,-0.0165,-0.0192,-0.0186,-0.0233,-0.0232,-0.0232,-0.0232,0,0.028,0.0309,0.036,0.0429,0.0508,0.0578,0.0623,0.0664,0.071,0.0717,0.0699,0.0573,0.0504,0.0293,0.0143,0.0,-0.0037,-0.0088,-0.0094,-0.0093,-0.0031,0.0013,-0.0021,0,0,0,0,0,0.0289,0.0315,0.0376,0.0448,0.0528,0.0573,0.0661,0.0696,0.0734,0.0722,0.0717,0.0601,0.0394,0.0307,0.0164,0.0112,-0.0075,-0.0062,-0.0139,-0.0247,-0.0244,-0.0195,0,0,0,0,0,0,0.0289,0.0338,0.0367,0.0452,0.0501,0.0592,0.0649,0.0678,0.0675,0.0688,0.0587,0.0549,0.0353,0.047,0.0153,0.0111,0.004,-0.0152,-0.0155,-0.0249,-0.0246,-0.0244,-0.0192,0,0,0,0,0]}]]